Terminal Aerodrome Forecast
Issued by NWS

Home | Current Version | Previous Version | Text Only | Print | Product List | Glossary On
Versions: 1 2 3 4 5 6 7 8 9 10 11 12 13 14 15 16 17 18 19 20 21 22 23 24 25 26 27 28 29 30 31 32 33 34 35 36
000
FTUS43 KDTX 292337
TAFPTK
TAF
KPTK 292337Z 3000/3024 18008KT P6SM SCT035 BKN080 OVC250
      TEMPO 3001/3003 3SM SHRA OVC035
     FM300700 20010KT P6SM BKN060 OVC150
     FM301500 23013KT 5SM -SHRA OVC045 PROB30 3016/3020 2SM TSRA
      OVC025CB
     FM302100 03013G20KT 4SM -SHRA BR OVC007=

USA.gov is the U.S. government's official web portal to all federal, state and local government web resources and services.